Weather observations for the past three days for
Petersburg, Grant County Airport
Imperial (Metric)
Date Time (edt) Wind (mph) Vis. (mi.) Weather Sky Cond. Temperature (ºF) Relative Humidity Wind Chill (°F) Heat Index (°F) Pressure Precipitation (in)
Air Dwpt 6 hour altimeter (in) sea level (mb) 1 hr 3 hr 6 hr
Max. Min.
07 21:15 NW 8 10.00 Fair CLR 56.5 32 40% 29.87 0.0
07 20:55 W 8 10.00 Fair CLR 57 31.6 38% 29.86 0.0
07 20:35 W 10 10.00 Fair CLR 57.6 31.5 37% 29.85 0.0
07 20:15 NW 10 10.00 Fair CLR 58.3 32.2 37% 29.85 0.0
07 19:55 NW 7 10.00 Partly Cloudy SCT075 59.2 34 67.3 59.2 39% 29.83 0.0
07 19:35 NW 7 10.00 Partly Cloudy SCT075 60.1 33.4 37% 29.83 0.0
07 19:15 NW 15 10.00 Fair CLR 61.5 32.9 34% 29.82 0.0
07 18:55 NW 9 10.00 Partly Cloudy SCT075 61.9 32.9 34% 29.82 0.0
07 18:35 NW 15 10.00 Mostly Cloudy BKN075 63 33.4 33% 29.81 0.0
07 18:15 NW 14 G 23 10.00 Overcast OVC075 63.9 33.3 32% 29.8 0.0
07 17:55 NW 16 10.00 Partly Cloudy SCT075 64.6 33.8 32% 29.79 0.0
07 17:35 NW 16 10.00 Mostly Cloudy SCT080 BKN170 64.8 32.7 30% 29.78 0.0
07 17:15 NW 16 G 21 10.00 Mostly Cloudy BKN160 65.8 32.9 29% 29.78 0.0
07 16:15 NW 17 G 25 10.00 Mostly Cloudy SCT075 BKN170 66.4 34 30% 29.78 0.0
07 15:55 NW 16 10.00 Overcast OVC170 66.6 34.7 31% 29.78 0.0
07 15:35 NW 15 10.00 Overcast FEW070 OVC180 65.7 34.3 31% 29.79 0.0
07 15:15 NW 13 10.00 Mostly Cloudy SCT070 BKN190 65.1 34.7 32% 29.78 0.0
07 14:55 NW 13 G 20 10.00 Partly Cloudy SCT070 67.3 37.6 34% 29.79 0.0
07 14:35 W 10 10.00 Partly Cloudy SCT065 65.8 37 35% 29.79 0.0
07 14:15 W 12 10.00 A Few Clouds FEW060 65.3 38.1 37% 29.79 0.0
07 13:55 NW 7 10.00 Fair CLR 64.8 39.2 65.3 51.8 39% 29.8 0.0
07 13:35 W 12 10.00 Fair CLR 64.6 39.4 40% 29.81 0.0
07 13:15 W 14 G 20 10.00 Fair CLR 65.3 40.1 40% 29.81 0.0
07 12:55 W 12 G 21 10.00 Fair CLR 63.5 40.1 42% 29.83 0.0
07 12:35 Vrbl 7 10.00 A Few Clouds FEW120 61.9 39.9 45% 29.84 0.0
07 12:15 W 10 10.00 Mostly Cloudy BKN120 61.9 39.9 45% 29.85 0.0
07 11:55 W 6 10.00 Overcast OVC120 60.1 40.1 48% 29.86 0.0
07 11:35 W 6 10.00 Mostly Cloudy BKN120 59.4 39 47% 29.87 0.0
07 11:15 Calm 10.00 Partly Cloudy FEW070 SCT120 58.8 42.4 55% 29.87 0.0
07 10:55 Vrbl 5 10.00 Mostly Cloudy SCT070 BKN130 57.2 43.9 61% 29.89 0.0
07 10:35 E 7 10.00 Overcast FEW039 BKN070 OVC130 55.9 43.7 64% 29.89 0.0
07 10:15 Vrbl 3 10.00 Overcast BKN060 OVC130 55.6 43.9 65% 29.9 0.0
07 09:55 E 3 10.00 Overcast OVC055 53.4 43.3 69% 29.92 0.0
07 09:35 Vrbl 3 9.00 Overcast OVC050 52.9 43.5 71% 29.92 0.0
07 09:15 NE 9 10.00 Overcast OVC050 52.3 43.3 72% 29.93 0.0
07 08:55 NE 3 10.00 Overcast OVC044 52.2 44.1 74% 29.93 0.0
07 08:35 NE 6 10.00 Overcast OVC038 52.2 43.9 74% 29.93 0.0
07 08:15 NE 5 10.00 Overcast OVC037 51.8 44.6 77% 29.92 0.0
07 07:55 Vrbl 5 10.00 Overcast OVC035 51.8 45 54 51.8 78% 29.92 0.0
07 07:35 N 6 10.00 Overcast OVC031 51.8 45 78% 29.91 0.0
07 07:15 NE 6 10.00 Overcast OVC028 51.8 47.3 85% 29.91 0.0
07 06:55 N 6 10.00 Overcast OVC029 52.3 49.3 89% 29.9 0.0
07 06:35 NE 7 10.00 Overcast OVC031 52.3 49.3 89% 29.89 0.0
07 06:15 NE 6 10.00 Overcast OVC032 52.5 49.1 88% 29.89 0.0
07 05:55 Calm 10.00 Overcast OVC036 52.5 49.3 89% 29.88 0.0
07 05:15 Calm 10.00 Overcast OVC036 52.9 49.8 89% 29.89 0.0
07 04:55 Calm 10.00 Overcast BKN038 OVC046 53.1 48.7 85% 29.87 0.0
07 04:35 Calm 10.00 Overcast OVC043 52.5 50.9 94% 29.88 0.0
07 04:15 Calm 10.00 Overcast OVC044 53.2 48.7 85% 29.89 0.0
07 03:55 Calm 10.00 Overcast OVC041 53.6 47.8 81% 29.88 0.0
07 03:35 NW 3 10.00 Overcast OVC042 53.6 48.2 82% 29.88 0.0
07 03:15 N 5 10.00 Overcast OVC041 53.8 48.6 83% 29.87 0.0
07 02:55 Calm 10.00 Overcast OVC033 53.6 51.1 91% 29.88 0.0
07 02:35 Calm 10.00 Overcast OVC032 53.1 51.8 96% 29.88 0.0
07 02:15 E 5 10.00 Overcast OVC030 53.1 52.2 97% 29.88 0.0
07 01:55 E 5 10.00 Overcast OVC027 53.4 52.3 63.9 52.7 96% 29.89 0.0
07 01:35 SE 6 10.00 Overcast OVC027 52.9 52.9 100% 29.89 0.0
07 01:15 SE 6 10.00 Overcast OVC027 52.9 52.9 100% 29.88 0.0
07 00:55 SE 7 10.00 Overcast BKN024 OVC031 53.6 53.6 100% 29.88 0.0
07 00:35 NE 6 10.00 Overcast BKN026 OVC031 54.3 54.3 100% 29.87 0.0
07 00:15 NE 8 7.00 Overcast BKN024 OVC031 56.1 54.5 94% 29.86 0.0
06 23:55 Calm 10.00 Overcast BKN030 OVC039 57.6 54.5 90% 29.85 0.0
06 23:35 NE 3 10.00 Overcast SCT029 OVC039 57.9 54.9 90% 29.88 0.0
06 23:15 E 8 10.00 Overcast OVC032 58.3 54.9 88% 29.85 0.0
06 22:55 N 6 10.00 Overcast OVC033 59.2 54.7 85% 29.86 0.0
06 22:35 E 5 10.00 Overcast OVC033 59 55.2 87% 29.87 0.0
06 22:15 NE 5 10.00 Overcast OVC034 59.7 54.1 82% 29.85 0.0
06 21:55 Vrbl 5 10.00 Overcast BKN031 OVC040 60.6 54.3 80% 29.85 0.0
06 21:35 Calm 10.00 Overcast BKN032 OVC042 61.3 54.7 79% 29.83 0.0
06 21:15 E 5 10.00 Overcast OVC033 62.1 54.9 77% 29.84 0.0
06 20:55 Vrbl 3 10.00 Overcast BKN034 OVC046 62.8 55 76% 29.82 0.0
06 20:35 NE 7 10.00 Overcast SCT036 OVC047 62.8 55.4 77% 29.82 0.0
06 20:15 NE 5 10.00 Mostly Cloudy BKN047 BKN065 63.1 56.1 78% 29.83 0.0
06 19:55 Calm 9.00 Overcast SCT045 BKN065 OVC085 64.2 56.3 70.7 64 76% 29.82 0.0
06 19:35 W 7 10.00 Mostly Cloudy FEW047 BKN065 BKN085 64.6 55.9 74% 29.82 0.0
06 19:15 W 9 10.00 Overcast BKN065 OVC090 65.1 56.3 73% 29.81 0.0
06 18:55 W 14 9.00 Overcast BKN049 OVC060 65.8 56.5 72% 29.8 0.0
06 18:35 W 15 9.00 Overcast BKN049 OVC060 66.2 56.7 72% 29.79 0.0
06 18:15 W 17 9.00 Overcast OVC045 66 56.8 72% 29.79 0.0
06 17:55 W 12 10.00 Overcast BKN043 OVC050 67.3 58.3 73% 29.77 0.0
06 17:35 W 13 10.00 Overcast BKN042 OVC050 67.6 59 74% 29.78 0.0
06 17:15 W 12 10.00 Overcast OVC043 68 59.5 74% 29.77 0.0
06 16:55 NW 7 8.00 Light Rain OVC037 67.6 60.4 78% 29.75 0.0
06 16:35 NW 7 9.00 Overcast OVC040 68 59.7 75% 29.76 0.0
06 16:15 W 9 9.00 Overcast OVC043 69.3 59 70% 29.75 0.0
06 15:55 W 13 10.00 Overcast OVC042 68.5 59.2 72% 29.75 0.0
06 15:35 W 13 9.00 Overcast OVC040 68.7 59 71% 29.75 0.0
06 15:15 W 14 9.00 Overcast OVC043 68.9 59 71% 29.75 0.0
06 14:55 NW 8 10.00 Overcast OVC044 69.6 59.7 71% 29.75 0.0
06 14:35 W 17 10.00 Overcast OVC045 69.6 58.6 68% 29.75 0.0
06 14:15 W 15 10.00 Overcast OVC042 70.7 59.4 67% 29.74 0.0
06 13:55 NW 12 G 20 10.00 Overcast BKN041 OVC049 70.7 60.1 71.2 59 69% 29.74 0.0 0.01
06 13:35 W 15 G 22 7.00 Light Rain OVC039 70 61 73% 29.74 0.0
06 13:15 SW 14 G 20 9.00 Overcast OVC041 71.1 59.9 68% 29.73 0.0
06 12:55 SW 14 G 28 8.00 Overcast OVC042 71.2 60.1 68% 29.73 0.0
06 12:35 S 9 9.00 Overcast OVC042 70.5 61.7 74% 29.73 0.0
06 11:55 S 9 9.00 Overcast OVC042 68 63.1 85% 29.73 0.0
06 11:35 S 8 9.00 Overcast BKN039 OVC047 66.6 62.8 88% 29.73 0.0
06 11:15 S 12 9.00 Overcast OVC037 64.6 62.1 92% 29.73 0.0
06 10:55 S 10 9.00 Overcast OVC037 63.7 61.2 92% 29.74 0.0 0.01
06 10:35 S 9 8.00 Overcast OVC038 63.3 61.3 93% 29.74 0.0
06 10:15 S 10 8.00 Overcast OVC039 62.2 60.8 95% 29.75 0.0
06 09:55 S 13 G 17 8.00 Overcast OVC040 61 60.3 98% 29.75 0.0
06 09:35 S 9 8.00 Overcast OVC044 60.6 60.1 98% 29.75 0.0
06 09:15 S 10 G 17 7.00 Light Rain BKN049 OVC055 60.1 60.1 100% 29.76 0.0
06 08:55 SE 9 8.00 Overcast BKN055 OVC080 59.4 59.4 100% 29.76 0.0 0.01
06 08:35 SE 8 6.00 Light Rain Fog/Mist FEW060 BKN075 OVC090 59 59 100% 29.76 0.0
06 08:15 SE 10 8.00 Overcast FEW070 OVC095 59.2 59 99% 29.76 0.0
06 07:55 SE 10 9.00 Overcast OVC095 59.2 58.1 69.1 59.2 96% 29.76 0.0 0.02 0.02
06 07:35 SE 9 5.00 Light Rain Fog/Mist OVC090 59.4 57.7 94% 29.76 0.0 0.02
06 07:15 SE 8 9.00 Overcast OVC095 61.5 53.1 74% 29.76 0.0
06 06:55 S 6 5.00 Light Rain FEW048 OVC095 63.1 50.4 63% 29.75 0.0
06 06:35 S 8 8.00 Light Rain FEW048 SCT060 OVC100 65.7 47.1 51% 29.75 0.0
06 06:15 S 7 8.00 Light Rain BKN065 OVC100 66 46.6 50% 29.75 0.0
06 05:55 S 10 10.00 Overcast BKN065 BKN120 OVC140 66.7 45.5 47% 29.74 0.0
06 05:35 S 8 10.00 Mostly Cloudy FEW065 SCT120 BKN140 66.6 45.5 47% 29.74 0.0
06 05:15 SE 8 10.00 Overcast OVC140 66.6 44.8 46% 29.74 0.0
06 04:55 SE 6 9.00 Mostly Cloudy SCT100 BKN140 66.9 44.8 45% 29.75 0.0
06 04:35 S 8 10.00 Overcast OVC100 67.1 44.4 44% 29.75 0.0
06 04:15 S 8 10.00 Overcast BKN095 BKN140 OVC170 67.1 44.2 44% 29.75 0.0
06 03:55 S 9 10.00 Overcast BKN090 BKN150 OVC180 67.3 43.9 43% 29.75 0.0
06 03:35 S 8 10.00 Overcast FEW080 OVC095 67.6 43.9 42% 29.75 0.0
06 03:15 S 8 10.00 Overcast OVC090 68.4 43.7 41% 29.75 0.0
06 02:55 S 8 10.00 Overcast BKN090 OVC110 68.7 43.5 40% 29.75 0.0
06 02:35 S 9 10.00 Overcast BKN085 OVC110 68.9 43.2 40% 29.75 0.0
06 01:55 S 9 9.00 Overcast FEW090 OVC110 68.7 43 77.5 68.5 39% 29.77 0.0
06 01:35 S 7 9.00 Overcast OVC100 68.5 43 40% 29.78 0.0
06 01:15 S 8 9.00 Overcast OVC100 69.3 42.6 38% 29.79 0.0
06 00:55 SW 7 10.00 Mostly Cloudy BKN110 69.4 42.4 38% 29.8 0.0
06 00:35 SW 5 9.00 A Few Clouds FEW110 69.1 42.4 38% 29.8 0.0
06 00:15 SW 7 9.00 A Few Clouds FEW100 69.8 42.3 37% 29.79 0.0
05 23:55 S 9 10.00 Mostly Cloudy BKN110 70.7 41.9 35% 29.79 0.0
05 23:35 S 9 9.00 Overcast OVC100 71.4 42.1 35% 29.79 0.0
05 23:15 S 12 10.00 Overcast OVC110 72.3 41.5 33% 29.8 0.0
05 22:55 SW 9 G 22 9.00 Overcast OVC110 72.9 41.5 32% 29.8 0.0
05 22:35 S 9 G 18 10.00 Overcast BKN110 OVC140 73 41.5 32% 29.8 0.0
05 22:15 S 8 9.00 Overcast OVC140 72.7 40.5 31% 29.8 0.0
05 21:55 S 6 9.00 Mostly Cloudy BKN150 73.4 39.6 29% 29.79 0.0
05 21:35 S 7 10.00 Overcast FEW130 BKN150 BKN170 OVC230 73.6 40.3 30% 29.79 0.0
05 21:15 S 6 10.00 Overcast BKN170 BKN190 OVC230 74.5 40.3 29% 29.79 0.0
05 20:55 S 8 10.00 Overcast BKN190 OVC220 75 40.5 29% 77 29.78 0.0
05 20:35 S 12 G 18 10.00 Partly Cloudy SCT220 75.7 40.5 28% 77 29.78 0.0
05 20:15 SW 13 9.00 Fair CLR 76.3 40.6 28% 77 29.78 0.0
05 19:55 SW 8 8.00 Fair CLR 77.9 34 83.1 77.9 20% 77 29.76 0.0
05 19:35 SW 14 G 22 9.00 Fair CLR 79 33.1 19% 78 29.75 0.0
05 19:15 SW 13 9.00 Fair CLR 79.7 33.8 19% 78 29.75 0.0
05 18:55 SW 8 G 17 8.00 Fair CLR 80.2 33.6 18% 79 29.76 0.0
05 18:35 SW 10 G 18 8.00 Fair CLR 80.1 33.4 18% 79 29.76 0.0
05 18:15 SW 12 G 24 9.00 Fair CLR 80.6 35.2 19% 79 29.76 0.0
05 17:55 SW 14 G 17 9.00 Fair CLR 82.8 35.4 18% 80 29.76 0.0
05 17:35 SW 8 9.00 A Few Clouds FEW250 82 34.9 18% 80 29.75 0.0
05 17:15 SW 15 8.00 Fair CLR 81.7 36.1 19% 80 29.75 0.0
05 16:55 SW 16 G 24 9.00 A Few Clouds FEW100 82.2 36 19% 80 29.75 0.0
05 16:35 SW 16 10.00 Fair CLR 81.9 36.3 20% 80 29.75 0.0
05 16:15 S 14 G 18 9.00 A Few Clouds FEW100 82.2 36.9 20% 80 29.75 0.0
05 15:55 S 15 G 24 9.00 Mostly Cloudy SCT100 BKN300 82.4 37.6 20% 80 29.76 0.0
05 15:35 S 14 G 23 10.00 A Few Clouds FEW380 82.6 38.1 20% 80 29.76 0.0
05 15:15 SW 9 10.00 Fair CLR 82.9 39.2 21% 81 29.76 0.0
05 14:55 SW 13 G 23 9.00 Fair CLR 82.9 39.4 21% 81 29.77 0.0
05 14:35 W 7 G 18 9.00 Fair CLR 81.9 39.9 22% 80 29.78 0.0
05 14:15 SW 5 9.00 Fair CLR 81.1 39.4 23% 79 29.79 0.0
05 13:55 W 12 G 32 10.00 A Few Clouds FEW320 81.5 40.1 81.9 64.6 23% 80 29.8 0.0
05 13:35 S 13 G 23 9.00 Fair CLR 81 38.3 22% 79 29.8 0.0
05 13:15 SW 13 10.00 Fair CLR 80.4 41.5 25% 79 29.81 0.0
05 12:55 Vrbl 7 9.00 Partly Cloudy FEW230 SCT370 78.6 42.3 27% 78 29.83 0.0
05 12:35 S 15 9.00 Partly Cloudy FEW240 SCT350 SCT370 78.3 41.2 27% 78 29.84 0.0
05 12:15 S 14 G 26 10.00 Partly Cloudy FEW240 SCT370 78.3 42.3 28% 78 29.84 0.0
05 11:55 W 12 G 20 10.00 Fair CLR 77.2 43 30% 78 29.85 0.0
05 11:35 SW 14 G 25 10.00 A Few Clouds FEW240 76.8 42.1 29% 78 29.86 0.0
05 11:15 SW 15 G 28 10.00 A Few Clouds FEW075 76.6 42.4 30% 77 29.86 0.0
05 10:55 SW 13 G 25 9.00 A Few Clouds FEW075 75.7 43 31% 77 29.86 0.0
05 10:35 SW 15 G 25 9.00 A Few Clouds FEW075 76.1 44.1 32% 77 29.86 0.0
05 10:15 W 15 G 22 9.00 Fair CLR 74.5 45 35% 29.86 0.0
05 09:55 W 16 G 24 10.00 Fair CLR 74.5 45.3 35% 29.85 0.0
05 09:35 SW 16 G 21 10.00 Fair CLR 73.8 44.8 36% 29.85 0.0
05 09:15 SW 10 G 17 10.00 Fair CLR 72.9 45.1 37% 29.86 0.0
05 08:55 S 8 10.00 Fair CLR 70.2 45.5 41% 29.86 0.0
05 08:35 S 8 10.00 Fair CLR 68 46 45% 29.87 0.0
05 08:15 S 14 10.00 Fair CLR 66.2 45.9 48% 29.87 0.0
05 07:55 S 9 9.00 Fair CLR 63.3 45.9 63.3 45.1 53% 29.88 0.0
05 07:35 S 13 9.00 Fair CLR 61.7 47.7 60% 29.87 0.0
05 07:15 Vrbl 3 9.00 A Few Clouds FEW220 54.5 50.7 87% 29.88 0.0
05 06:55 Calm 10.00 A Few Clouds FEW220 52.9 49.8 89% 29.87 0.0
05 06:35 Calm 10.00 A Few Clouds FEW220 50.4 50.2 99% 29.86 0.0
05 06:15 W 6 10.00 Mostly Cloudy BKN210 46.2 46.2 100% 44 29.86 0.0
05 05:55 W 5 10.00 Mostly Cloudy BKN210 47.3 47.3 100% 46 29.86 0.0
05 05:35 NW 6 10.00 Overcast OVC210 46.8 46.8 100% 44 29.85 0.0
05 05:15 W 6 10.00 Mostly Cloudy BKN220 45.9 45.9 100% 43 29.85 0.0
05 04:55 Calm 10.00 Fair CLR 46 46 100% 29.85 0.0
05 04:35 Calm 10.00 Fair CLR 47.1 47.1 100% 29.85 0.0
05 04:15 NW 3 10.00 Fair CLR 45.3 45.3 100% 29.85 0.0
05 03:55 NW 6 10.00 A Few Clouds FEW200 45.5 45.5 100% 43 29.84 0.0
05 03:35 W 5 10.00 Fair CLR 46.6 46.6 100% 45 29.84 0.0
05 03:15 Calm 10.00 Fair CLR 47.7 47.7 100% 29.84 0.0
05 02:55 Calm 10.00 Partly Cloudy FEW085 SCT140 47.3 47.3 100% 29.84 0.0
05 02:35 Calm 10.00 Partly Cloudy FEW085 SCT150 48 48 100% 29.84 0.0
05 02:15 Calm 10.00 Fair CLR 48.6 48.6 100% 29.84 0.0
05 01:55 Calm 10.00 A Few Clouds FEW120 49.1 49.1 70.5 47.3 100% 29.84 0.0
05 01:35 Calm 9.00 Partly Cloudy SCT120 48.4 48.4 100% 29.84 0.0
05 01:15 Calm 9.00 Fair CLR 47.7 47.7 100% 29.84 0.0
05 00:55 Calm 9.00 Fair CLR 51.3 51.3 100% 29.84 0.0
05 00:35 Calm 9.00 Fair CLR 51.3 50.7 98% 29.84 0.0
05 00:15 Calm 10.00 Fair CLR 51.1 50.9 99% 29.84 0.0
04 23:55 Calm 9.00 Fair CLR 51.1 50.9 99% 29.84 0.0
04 23:35 NW 5 9.00 Fair CLR 53.4 51.6 94% 29.84 0.0
04 23:15 Calm 10.00 A Few Clouds FEW220 54.1 51.4 91% 29.84 0.0
04 22:55 NW 3 9.00 Fair CLR 53.2 52 96% 29.84 0.0
04 22:35 W 3 9.00 Fair CLR 56.7 50.7 81% 29.84 0.0
04 22:15 Calm 9.00 Fair CLR 57.9 50.5 77% 29.84 0.0
04 21:55 Calm 10.00 Fair CLR 57.9 48.7 72% 29.84 0.0
04 21:35 Calm 9.00 Fair CLR 60.8 47.8 63% 29.83 0.0
Date Time (edt) Wind (mph) Vis. (mi.) Weather Sky Cond. Air Dwpt Max. Min. Relative Humidity Wind Chill (°F) Heat Index (°F) altimeter (in) sea level (mb) 1 hr 3 hr 6 hr
6 hour
Temperature (ºF) Pressure Precipitation (in)